[[{"header":{"parameterUnit":"m.s-1","parameterCategory":1,"la1":30.2991,"la2":30.254,"lo1":-89.0895,"lo2":-89.0444,"dy":0.0017,"dx":0.0017,"nx":28,"ny":28,"refTime":"2023-08-24T21:00:00:Z","depth":0,"parameterNumber":2,"parameterNumberName":"U-component_of_WINDS"},"data":[0,0,0,0,0,0,0,0,0,0,0,0,0,0,0,0,0,0,0,0,0,0,0,0,0,0,0,0,0,0,0,0,0,0,0,0,0,0,0,0,0,0,0,0,0,0,0,0,0,0,0,0,0,0,0,0,0,0,3.6418,3.6419,0,3.6467,3.6467,3.6468,3.6435,3.6433,3.6432,3.643,3.6478,3.6481,3.6483,0,0,0,0,0,0,0,0,0,0,0,0,0,3.6297,3.6299,3.6418,3.6419,3.6419,3.6467,3.6467,3.6468,3.6435,3.6433,3.6431,3.643,3.6477,3.648,3.6483,0,0,0,0,0,0,0,0,0,0,0,0,0,3.6348,3.63,3.6418,3.6409,3.6408,3.6467,3.6467,3.6468,3.6435,3.6433,3.6431,3.6429,3.6476,3.648,3.6484,3.6553,0,0,3.6496,3.6498,0,0,0,0,0,0,0,0,3.6345,3.6352,3.6409,3.6409,3.6409,3.6442,3.6442,3.6497,3.6436,3.6425,3.643,3.6428,3.6468,3.6472,3.6486,3.6556,3.6558,3.6496,3.6499,3.6501,3.6502,0,0,0,0,0,0,0,3.6341,3.635,3.6437,3.641,3.641,3.6402,3.6407,3.6452,3.6458,3.6426,3.6424,3.643,3.6467,3.6483,3.6487,3.6558,3.6496,3.65,3.6502,3.6504,3.6691,3.6693,0,0,0,0,0,0,3.6339,3.6347,3.6436,3.6439,3.6371,3.6406,3.6411,3.6434,3.6458,3.6459,3.6432,3.6428,3.6477,3.6483,3.6489,3.6574,3.6501,3.6504,3.6507,3.6688,3.6691,3.6694,0,0,0,0,0,0,3.6336,3.6347,3.6434,3.6392,3.6403,3.6411,3.6436,3.6436,3.6451,3.6462,3.6463,3.6446,3.6475,3.6483,3.6539,3.6575,3.6506,3.651,3.6685,3.6689,3.6693,3.6743,0,0,0,0,0,0,3.6333,3.6346,3.6372,3.6393,3.6405,3.6483,3.6438,3.6439,3.6459,3.6454,3.6476,3.6477,3.6474,3.6533,3.6542,3.6579,3.6513,3.6682,3.6687,3.6691,3.6738,3.6748,3.6756,0,0,0,0,0,3.6329,3.6383,3.6374,3.6385,3.6438,3.6485,3.6491,3.6487,3.6462,3.6488,3.6496,3.6477,3.657,3.6539,3.6549,3.6588,3.6679,3.6685,3.6691,3.6734,3.6746,3.6756,0,0,0,0,0,0,3.6364,3.6386,3.6375,3.6438,3.646,3.6479,3.6512,3.65,3.6528,3.6523,3.6516,3.6521,3.658,3.6589,3.6554,3.6658,3.662,3.6629,3.6649,3.6661,3.667,3.6666,3.6516,0,0,0,0,0,3.638,3.6417,3.6433,3.6487,3.6499,3.6504,3.6524,3.6519,3.6541,3.655,3.6561,3.6583,3.6617,3.664,3.6671,3.674,3.6745,3.6772,3.6781,3.6788,3.6795,3.6835,3.6847,3.6713,3.6713,3.6713,0,0,3.6412,3.6428,3.6451,3.6495,3.6511,3.6549,3.6512,3.6553,3.6581,3.6556,3.6609,3.6619,3.6643,3.6706,3.6734,3.6715,3.6834,3.6796,3.6802,3.6805,3.6842,3.6855,3.6866,3.6717,3.6716,3.6716,0,0,3.6489,3.6505,3.6553,3.6571,3.6597,3.6601,3.6613,3.6635,3.664,3.6695,3.6677,3.6711,3.6769,3.6788,3.6805,3.6895,3.6879,3.6906,3.6953,3.6992,3.7002,3.7012,3.7045,3.7057,3.6913,3.6913,3.6913,0,3.6525,3.6582,3.6579,3.6623,3.6643,3.6624,3.6674,3.6691,3.6726,3.6741,3.672,3.6796,3.681,3.6878,3.6901,3.6915,3.6929,3.6902,3.7001,3.7011,3.7019,3.7051,3.7063,3.6916,3.6915,3.6915,3.6915,0,3.6626,3.6666,3.6702,3.6739,3.6763,3.6809,3.6814,3.6839,3.6834,3.684,3.6897,3.6914,3.6951,3.6967,3.696,3.7035,3.7023,3.7002,3.6964,3.7035,3.7065,3.7077,3.692,3.6919,3.6918,3.6917,0,0,3.6724,3.6762,3.6775,3.6793,3.6822,3.6853,3.69,3.6937,3.696,3.6985,3.7025,3.7077,3.7059,3.7078,3.7075,3.7108,3.7181,3.7083,3.7084,3.7102,3.7266,3.7282,3.7296,3.7171,3.7173,3.7175,3.7265,0,3.6805,3.6886,3.6887,3.6962,3.7001,3.6985,3.7026,3.7049,3.7057,3.7091,3.7099,3.7137,3.711,3.7122,3.7155,3.7165,3.7214,3.7158,3.7208,3.721,3.7202,3.7311,3.7327,3.7411,3.7276,3.7278,3.7279,0,3.6908,3.694,3.702,3.7047,3.7063,3.71,3.7136,3.7168,3.7195,3.7198,3.7223,3.7215,3.7263,3.7225,3.7293,3.7255,3.7276,3.7284,3.7288,3.7291,3.7248,3.7319,3.7437,3.745,3.7297,3.7296,3.7295,0,3.6974,3.7036,3.7093,3.7108,3.7141,3.7168,3.7182,3.7207,3.723,3.7262,3.7277,3.7314,3.7333,3.7362,3.7365,3.7337,3.7434,3.7395,3.7438,3.7439,3.7458,3.7457,3.7582,3.7472,3.7472,3.7472,3.7471,0,3.7063,3.7113,3.7123,3.7158,3.7214,3.7215,3.727,3.7283,3.7306,3.7343,3.7332,3.7367,3.7368,3.7405,3.7408,3.7464,3.7473,3.7478,3.7478,3.7479,3.7478,3.7492,3.7486,3.7475,3.7474,3.7473,3.7473,0,3.7145,3.7154,3.7215,3.7242,3.725,3.7291,3.7314,3.7348,3.7356,3.7404,3.7415,3.7429,3.7472,3.7478,3.7527,3.7529,3.7597,3.7591,3.7589,3.7588,3.7631,3.7627,3.7769,3.7788,3.7665,3.7667,3.7668,0,3.7201,3.7239,3.7272,3.7297,3.7314,3.7354,3.7379,3.7382,3.7408,3.7444,3.7474,3.7516,3.755,3.762,3.7633,3.7672,3.7667,3.7714,3.7673,3.7674,3.7669,3.7667,3.7671,3.7722,3.7723,3.7724,3.7725,0,3.73,3.7304,3.7341,3.738,3.7411,3.7442,3.7471,3.7492,3.7499,3.753,3.7574,3.7601,3.7654,3.7696,3.7735,3.775,3.774,3.7739,3.7751,3.7752,3.775,3.7753,3.7611,3.7735,3.7734,3.7733,3.7733,3.7732,3.7372,3.7406,3.7436,3.7478,3.7501,3.7529,3.7563,3.7578,3.7615,3.7659,3.7659,3.7708,3.7737,3.7789,3.7807,3.7846,3.7831,3.7848,3.7853,3.7857,3.7862,3.7744,3.7853,3.7853,3.7853,3.7853,3.7852,0,3.7471,3.7491,3.753,3.7572,3.7606,3.7595,3.7627,3.7656,3.7701,3.7729,3.7763,3.7816,3.7859,3.7877,3.7919,3.7947,3.7944,3.7958,3.7956,3.796,3.7873,3.7858,3.7961,3.7961,3.7961,3.7961,3.7961,3.7961,3.7527,3.7586,3.7594,3.7665,3.7683,3.7733,3.7753,3.7779,3.7802,3.7862,3.7898,3.7911,3.7936,3.798,3.8019,3.8023,3.8039,3.8057,3.8059,3.7977,3.7966,3.7955,3.7942,3.806,3.806,3.8143,3.8144,3.8144]},{"header":{"parameterUnit":"m.s-1","parameterCategory":1,"la1":30.2991,"la2":30.254,"lo1":-89.0895,"lo2":-89.0444,"dy":0.0017,"dx":0.0017,"nx":28,"ny":28,"refTime":"2023-08-24T21:00:00:Z","depth":0,"parameterNumber":3,"parameterNumberName":"V-component_of_WINDS"},"data":[0,0,0,0,0,0,0,0,0,0,0,0,0,0,0,0,0,0,0,0,0,0,0,0,0,0,0,0,0,0,0,0,0,0,0,0,0,0,0,0,0,0,0,0,0,0,0,0,0,0,0,0,0,0,0,0,0,0,-2.4882,-2.4883,0,-2.4979,-2.498,-2.4981,-2.5007,-2.5006,-2.5006,-2.5005,-2.5102,-2.5105,-2.5108,0,0,0,0,0,0,0,0,0,0,0,0,0,-2.4718,-2.4721,-2.4882,-2.4883,-2.4884,-2.4979,-2.498,-2.4981,-2.5007,-2.5006,-2.5005,-2.5005,-2.5101,-2.5105,-2.5109,0,0,0,0,0,0,0,0,0,0,0,0,0,-2.4799,-2.4722,-2.4881,-2.4908,-2.4912,-2.4978,-2.498,-2.4982,-2.5007,-2.5006,-2.5005,-2.5004,-2.51,-2.5104,-2.5109,-2.5155,0,0,-2.5123,-2.5125,0,0,0,0,0,0,0,0,-2.4795,-2.4805,-2.4903,-2.4907,-2.491,-2.498,-2.4958,-2.504,-2.5007,-2.4971,-2.5005,-2.5004,-2.5062,-2.507,-2.509,-2.516,-2.5164,-2.5124,-2.5127,-2.5129,-2.513,0,0,0,0,0,0,0,-2.4789,-2.4801,-2.492,-2.4904,-2.4909,-2.4915,-2.4926,-2.4974,-2.502,-2.4974,-2.4976,-2.4987,-2.5064,-2.5085,-2.5092,-2.5165,-2.5124,-2.5128,-2.5131,-2.5133,-2.5281,-2.5283,0,0,0,0,0,0,-2.4779,-2.4797,-2.4917,-2.4923,-2.4849,-2.4919,-2.4931,-2.4958,-2.5019,-2.5028,-2.4988,-2.4988,-2.5078,-2.5087,-2.5096,-2.5156,-2.5129,-2.5133,-2.5136,-2.528,-2.5282,-2.5283,0,0,0,0,0,0,-2.4775,-2.479,-2.4913,-2.486,-2.4877,-2.4923,-2.4953,-2.4961,-2.4982,-2.503,-2.5038,-2.5001,-2.5077,-2.5089,-2.5141,-2.516,-2.5135,-2.5139,-2.5279,-2.5281,-2.5282,-2.5276,0,0,0,0,0,0,-2.4771,-2.4788,-2.4806,-2.4861,-2.4879,-2.4957,-2.4954,-2.4963,-2.499,-2.4992,-2.5045,-2.5053,-2.5078,-2.5134,-2.5146,-2.5166,-2.5143,-2.5277,-2.528,-2.5282,-2.5274,-2.5277,-2.5279,0,0,0,0,0,-2.4765,-2.4799,-2.4807,-2.4821,-2.4903,-2.4958,-2.4968,-2.4997,-2.4992,-2.501,-2.5042,-2.5051,-2.5156,-2.5139,-2.5153,-2.5174,-2.5276,-2.5279,-2.5282,-2.5273,-2.5276,-2.5279,0,0,0,0,0,0,-2.4744,-2.4807,-2.4816,-2.4869,-2.4908,-2.4962,-2.4986,-2.4999,-2.5039,-2.5039,-2.5071,-2.5083,-2.5134,-2.5159,-2.5139,-2.5224,-2.5216,-2.5222,-2.5205,-2.5209,-2.5211,-2.5204,-2.5147,0,0,0,0,0,-2.4746,-2.4785,-2.4838,-2.488,-2.4899,-2.4939,-2.4964,-2.4983,-2.5024,-2.5041,-2.5076,-2.5115,-2.5158,-2.5184,-2.5225,-2.5278,-2.5291,-2.53,-2.5302,-2.5304,-2.5308,-2.5341,-2.5346,-2.5291,-2.5291,-2.5291,0,0,-2.4749,-2.4789,-2.4811,-2.4877,-2.4909,-2.495,-2.4953,-2.4995,-2.5026,-2.5047,-2.5099,-2.5126,-2.5173,-2.5226,-2.5251,-2.5249,-2.5327,-2.5307,-2.5308,-2.5312,-2.5344,-2.5349,-2.5354,-2.5293,-2.5293,-2.5293,0,0,-2.4777,-2.481,-2.485,-2.4883,-2.4933,-2.496,-2.497,-2.5023,-2.5042,-2.5095,-2.5113,-2.5149,-2.522,-2.5254,-2.528,-2.5324,-2.5335,-2.5336,-2.5348,-2.538,-2.5384,-2.5388,-2.5406,-2.5411,-2.534,-2.534,-2.534,0,-2.4775,-2.4838,-2.4869,-2.4911,-2.494,-2.4963,-2.5004,-2.5034,-2.5095,-2.5114,-2.5111,-2.5203,-2.5235,-2.5298,-2.5309,-2.5329,-2.5342,-2.533,-2.5381,-2.5385,-2.539,-2.5407,-2.5413,-2.534,-2.534,-2.534,-2.534,0,-2.4834,-2.4878,-2.4904,-2.4964,-2.4995,-2.5037,-2.5074,-2.5103,-2.5119,-2.5147,-2.5202,-2.5242,-2.5293,-2.5309,-2.5325,-2.5375,-2.5372,-2.5374,-2.5368,-2.5394,-2.5411,-2.5418,-2.534,-2.534,-2.534,-2.534,0,0,-2.4851,-2.4929,-2.4938,-2.4967,-2.5025,-2.5059,-2.5102,-2.5153,-2.5178,-2.5219,-2.5257,-2.5318,-2.5322,-2.5351,-2.5371,-2.5398,-2.5434,-2.5398,-2.5399,-2.5405,-2.5494,-2.5493,-2.55,-2.5441,-2.5442,-2.5443,-2.5491,0,-2.4887,-2.4966,-2.4996,-2.5061,-2.5103,-2.5126,-2.5164,-2.5203,-2.5231,-2.527,-2.53,-2.5344,-2.5344,-2.5362,-2.539,-2.5423,-2.5452,-2.542,-2.5478,-2.5479,-2.5467,-2.5509,-2.5507,-2.555,-2.5497,-2.5499,-2.5499,0,-2.494,-2.4984,-2.5054,-2.5109,-2.5128,-2.5161,-2.5212,-2.5249,-2.5295,-2.5313,-2.5348,-2.5367,-2.5414,-2.5404,-2.5471,-2.5448,-2.5474,-2.5494,-2.5496,-2.5503,-2.5492,-2.5519,-2.5564,-2.5571,-2.551,-2.5509,-2.5508,0,-2.4948,-2.5024,-2.5076,-2.51,-2.5165,-2.5189,-2.5217,-2.5262,-2.5292,-2.5336,-2.5357,-2.5405,-2.5432,-2.5469,-2.5501,-2.5491,-2.5566,-2.5558,-2.5583,-2.5583,-2.5598,-2.5597,-2.565,-2.5612,-2.5612,-2.5612,-2.5612,0,-2.4987,-2.5028,-2.5081,-2.5113,-2.5162,-2.5196,-2.5243,-2.5272,-2.5313,-2.5352,-2.5374,-2.541,-2.545,-2.5491,-2.5516,-2.5569,-2.558,-2.5597,-2.5603,-2.5596,-2.5594,-2.5614,-2.5612,-2.5614,-2.5613,-2.5613,-2.5613,0,-2.5003,-2.504,-2.5099,-2.5157,-2.5172,-2.5206,-2.5255,-2.5288,-2.5317,-2.5366,-2.5379,-2.5425,-2.5475,-2.5511,-2.5575,-2.5592,-2.5649,-2.5654,-2.5634,-2.5637,-2.5661,-2.5659,-2.573,-2.5742,-2.5694,-2.5695,-2.5695,0,-2.5026,-2.5059,-2.5122,-2.515,-2.5178,-2.5223,-2.5254,-2.529,-2.5321,-2.5378,-2.5405,-2.5456,-2.55,-2.5579,-2.5618,-2.5668,-2.5676,-2.5697,-2.5683,-2.5676,-2.5679,-2.5677,-2.5681,-2.5699,-2.57,-2.57,-2.57,0,-2.5063,-2.5081,-2.5125,-2.5177,-2.5214,-2.5256,-2.5298,-2.532,-2.5363,-2.5398,-2.545,-2.5484,-2.5551,-2.5603,-2.5657,-2.5686,-2.5701,-2.5704,-2.5713,-2.5707,-2.5694,-2.5704,-2.5641,-2.5703,-2.5702,-2.5702,-2.5702,-2.5702,-2.5085,-2.5117,-2.5167,-2.5216,-2.5252,-2.5292,-2.5326,-2.5361,-2.5405,-2.5463,-2.5481,-2.5536,-2.5584,-2.5658,-2.5689,-2.5733,-2.5731,-2.5744,-2.5747,-2.575,-2.5751,-2.5686,-2.5742,-2.5742,-2.5742,-2.5742,-2.5742,0,-2.5126,-2.5159,-2.5204,-2.5264,-2.5304,-2.5315,-2.5363,-2.5395,-2.5444,-2.5487,-2.5531,-2.5592,-2.5643,-2.5687,-2.574,-2.5767,-2.5776,-2.578,-2.5779,-2.5786,-2.5748,-2.5736,-2.5773,-2.5773,-2.5773,-2.5773,-2.5773,-2.5773,-2.5151,-2.5206,-2.523,-2.5304,-2.5337,-2.5392,-2.5419,-2.5456,-2.5491,-2.5559,-2.5602,-2.5631,-2.5676,-2.5733,-2.5781,-2.5793,-2.5812,-2.5815,-2.5829,-2.5792,-2.5789,-2.5785,-2.5774,-2.5819,-2.5819,-2.5864,-2.5865,-2.5865]}]]